Powrót do katalogu

GLOBALSTAR M045

AktywnyŁącznośćLEO
NORAD 25676·PAYLOAD·🇺🇸 United States

Wystrzelony Apr 15, 1999 z Baikonur Cosmodrome

Loading…

Następne Przeloty (najbliższe 24 godziny)

TLE

ŚwieżeSource: Space-Track

Epoka: Sep 13, 2026, 17:44 UTC

1 25676U 99019A   26256.73909109 -.00000068  00000-0  22333-3 0  9994
2 25676  51.9954  92.5249 0000743  71.5491   9.4726 12.27078011249072

Śledź GLOBALSTAR M045 w czasie rzeczywistym z AllMySat

Download on the App Store